Preview of NWS' New Version of Forecast
This preview is not operational and should not be used for support decisions.

Regional Weather Roundup (RWR)

Issued by National Weather Service (NWS)

                            
000
ASUS45 KCYS 251010
RWRWY 

WYOMING REGIONAL WEATHER ROUNDUP
NATIONAL WEATHER SERVICE CHEYENNE WY
400 AM MDT SUN AUG 25 2019

NOTE:  "FAIR" INDICATES FEW OR NO CLOUDS BELOW 12,000 FEET
WITH NO SIGNIFICANT WEATHER AND/OR OBSTRUCTIONS TO VISIBILITY.

WYZ001-251100-
YELLOWSTONE NATIONAL PARK
  
CITY           SKY/WX    TMP DP  RH WIND       PRES   REMARKS
LK YELLOWSTONE   N/A     45  35  68 NW5       30.16S                  
W YELLOWSTONE  NOT AVBL                                               

$$
WYZ002>013-054>058-071-098>099-251100-
NORTHERN WYOMING
  
CITY           SKY/WX    TMP DP  RH WIND       PRES   REMARKS
JACKSON        FAIR      63  32  31 S9        30.07R                  
CODY           FAIR      63  44  50 CALM      29.93R                  
GREYBULL       FAIR      61  41  47 NW8       29.82R                  
WORLAND        FAIR      56  50  80 NW3       29.82R                  
SHERIDAN       FAIR      60  52  74 NW8       29.86R                  
BUFFALO        FAIR      61  50  67 NW7         N/A                   
GILLETTE       FAIR      60  55  83 N5        29.87R                  
HULETT         CLOUDY    61  54  77 N7G25     29.96                   
NEWCASTLE      FAIR      61  50  67 N3        29.87                   

$$
WYZ014>020-022>026-101>103-251100-
CENTRAL WYOMING
  
CITY           SKY/WX    TMP DP  RH WIND       PRES   REMARKS
BIG PINEY      FAIR      51  33  50 NE10      30.13R                  
PINEDALE       FAIR      43  34  70 NW7       30.14                   
DUBOIS         FAIR      63  28  27 W23G29    30.06                   
LANDER         FAIR      73  35  25 W16       29.95S                  
RIVERTON       FAIR      70  37  29 SW10      29.93S                  
CASPER         FAIR      59  39  47 W6        29.92F                  
DOUGLAS        FAIR      54  46  74 W3        29.90F                  

$$
WYZ021-027>030-104>119-251100-
SOUTHERN WYOMING
  
CITY           SKY/WX    TMP DP  RH WIND       PRES   REMARKS
EVANSTON       FAIR      57  30  35 SW12      30.17S                  
KEMMERER       FAIR      52  30  43 CALM      30.16                   
ROCK SPRINGS   FAIR      64  29  26 CALM      30.12S                  
DIXON          FAIR      53  30  42 SE7       30.16F                  
RAWLINS        FAIR      59  30  33 CALM      30.09F                  
SARATOGA       FAIR      52  32  46 SE6       30.13F                  
LARAMIE        FAIR      51  28  41 W12       30.10F                  
CHEYENNE       FAIR      56  42  59 W5        30.01F                  
TORRINGTON     FAIR      59  58  96 E9        29.84F                  
PINE BLUFFS    FAIR      52  52 100 S3        29.96S                  

$$